EUTELSAT HOTBIRD 13G

Last updated on Sun Apr 12 2026 00:02:56 GMT+0000 (Coordinated Universal Time)

1 54225U 22146A 26101.10461515 .00000089 00000+0 00000+0 0 9991 2 54225 0.0444 236.2159 0002008 305.6830 68.1089 1.00276403 6792
UTC large
Height (km)
Speed (km/s)
/
Latitude / Longitude
Inclination (degrees)
Orbital Period (minutes)
Azimuth
Elevation
Range (km)
Doppler Factor

Next 0 passes for location: London (51.5072 / 0.1276)

Sorry there are no passes over London.
EUTELSAT HOTBIRD 13G